Location: Newark
(25.4297°S, 49.2719°W)
Time: 01:34:35
(UTC+00:00)

Tiangong - Pass Details

Date: 29 June 2021
Orbit: 373 x 386 km, 41.5° (Epoch: 02 August)

Event Time Altitude Azimuth Distance (km) Brightness Sun altitude
Rises 21:03:02 0° 249° (WSW) 2,262 5.7 -6.0°
Reaches altitude 10° 21:05:23 10° 264° (W) 1,400 5.0 -6.5°
Maximum altitude 21:07:57 23° 319° (NW) 860 3.8 -7.1°
Drops below altitude 10° 21:10:30 10° 14° (NNE) 1,381 4.0 -7.6°
Sets 21:12:48 0° 29° (NNE) 2,221 4.9 -8.1°
